Flag for Russia Weather past 2 weeks in Murmansk, Russia

Now
30 °F

Snow flurries. Partly sunny.


Feels Like: 30 °F
Forecast: 26 / 39 °F
Wind: 1 mph from West

Location: Murmansk Airport

Current Time: Apr 26, 2015 at 11:15:03 PM

Latest Report: Apr 26, 2015 at 10:30 PM


Visibility: N/A

Pressure: 29.80 "Hg

Humidity: 80%

Dew point: 25 °F

Location of MurmanskLocation

Historic Weather in Murmansk — Graph

°F

Murmansk temperature yesterday

Maximum temperature yesterday: 36 °F (at 3:30 PM)
Minimum temperature yesterday: 19 °F (at 12:00 AM)
Average temperature yesterday: 30 °F

Past Weeks' High & Low Weather Summary

 TemperatureHumidityPressure
High46 °F (Apr 13, 3:00 PM)100% (Apr 15, 3:00 AM)29.98 "Hg (Apr 15, 3:00 AM)
Low19 °F (Apr 24, 11:30 PM)31% (Apr 12, 2:00 PM)29.21 "Hg (Apr 23, 1:30 AM)
Average33 °F74%29.67 "Hg
* Reported Apr 11 10:00 PM — Apr 26 10:00 PM, Murmansk, Weather by CustomWeather, © 2015

Note: Actual official high and low records may vary slightly from our data, if they occured in-between our weather recording intervals... More about our weather records

Advertising

Murmansk weather history for previous 24 hours

 ConditionsComfort  
Time TempWeatherWind HumidityBarometerVisibility
10:00 PM
Sun, Apr 26
30 °FSnow flurries. Partly sunny.1 mph80%29.80 "Hg4 mi
9:30 PM30 °FPartly sunny.3 mph80%29.80 "HgN/A
9:00 PM30 °FSnow flurries. Partly sunny.1 mph86%29.80 "HgN/A
8:30 PM30 °FSnow flurries. Partly sunny.3 mph86%29.80 "HgN/A
8:00 PM30 °FSnow flurries. Partly sunny.6 mph86%29.80 "Hg4 mi
7:30 PM32 °FPartly sunny.6 mph75%29.80 "HgN/A
7:00 PM32 °FBroken clouds.3 mph69%29.80 "HgN/A
6:30 PM32 °FBroken clouds.3 mph69%29.80 "HgN/A
6:00 PM32 °FSnow flurries. Partly sunny.3 mph69%29.80 "HgN/A
5:30 PM32 °FSnow flurries. Partly sunny.6 mph80%29.80 "Hg6 mi
5:00 PM34 °FPartly sunny.8 mph65%29.80 "HgN/A
4:30 PM34 °FBroken clouds.6 mph60%29.80 "HgN/A
4:00 PM34 °FBroken clouds.8 mph60%29.80 "HgN/A
3:30 PM34 °FBroken clouds.8 mph60%29.80 "HgN/A
3:00 PM34 °FBroken clouds.8 mph56%29.80 "HgN/A
2:30 PM32 °FBroken clouds.6 mph75%29.80 "HgN/A
2:00 PM32 °FSnow flurries. Partly sunny.10 mph75%29.80 "Hg6 mi
1:30 PM34 °FBroken clouds.8 mph60%29.80 "HgN/A
1:00 PM32 °FSnow flurries. Partly sunny.8 mph69%29.80 "HgN/A
12:30 PM32 °FSnow flurries. Partly sunny.6 mph75%29.80 "HgN/A
12:00 PM32 °FSnow flurries. Partly sunny.8 mph75%29.80 "Hg5 mi
11:30 AM32 °FSnow flurries. Partly sunny.8 mph69%29.80 "Hg6 mi
11:00 AM32 °FBroken clouds.8 mph69%29.80 "HgN/A
10:30 AM32 °FSnow flurries. Partly sunny.6 mph69%29.80 "HgN/A
10:00 AM30 °FSnow flurries. Partly sunny.8 mph75%29.80 "HgN/A
9:30 AM30 °FSnow flurries. Partly sunny.8 mph75%29.80 "HgN/A
9:00 AM30 °FSnow flurries. Partly sunny.8 mph75%29.80 "Hg6 mi
8:30 AM30 °FBroken clouds.6 mph80%29.80 "HgN/A
8:00 AM30 °FSnow flurries. Partly sunny.6 mph80%29.80 "Hg6 mi
7:30 AM30 °FSnow flurries. Partly sunny.6 mph80%29.80 "HgN/A
7:00 AM30 °FSnow flurries. Partly sunny.6 mph80%29.80 "HgN/A
6:30 AM28 °FSnow flurries. Partly sunny.3 mph93%29.80 "Hg6 mi
6:00 AM30 °FSnow flurries. Partly sunny.6 mph80%29.80 "HgN/A
5:30 AM28 °FSnow flurries. Partly sunny.3 mph86%29.80 "HgN/A
5:00 AM28 °FSnow flurries. Partly sunny.6 mph86%29.80 "Hg6 mi
4:30 AM30 °FSnow flurries. Passing clouds.6 mph80%29.80 "HgN/A
4:00 AM28 °FSnow flurries. Passing clouds.6 mph93%29.80 "Hg5 mi
3:30 AM30 °FPassing clouds.6 mph80%29.80 "HgN/A
3:00 AM30 °FPassing clouds.6 mph86%29.80 "HgN/A
2:30 AM30 °FSnow flurries. Passing clouds.6 mph86%29.80 "HgN/A
2:00 AM30 °FSnow flurries. Passing clouds.6 mph86%29.80 "HgN/A
1:30 AM30 °FSnow flurries. Passing clouds.6 mph86%29.77 "HgN/A
1:00 AM30 °FSnow flurries. Passing clouds.6 mph86%29.77 "Hg5 mi
12:00 AM30 °FSnow flurries. Passing clouds.6 mph86%29.77 "Hg4 mi
11:30 PM
Sat, Apr 25
30 °FPartly cloudy.6 mph86%29.77 "HgN/A
11:00 PM30 °FPartly cloudy.6 mph86%29.77 "HgN/A
Weather by CustomWeather, © 2015

See weather overviewHow to use our weather pages